Flag for Liechtenstein Weather past 2 weeks in Vaduz, Liechtenstein

Now
48 °F

Overcast.


Feels Like: 46 °F
Forecast: 42 / 63 °F
Wind: 5 mph from South

Location: Vaduz

Current Time: Oct 25, 2014 at 12:32:15 PM

Latest Report: Oct 25, 2014 at 11:00 AM


Visibility: 9 mi

Pressure: 30.20 "Hg

Humidity: 65%

Dew point: 37 °F

Location of VaduzLocation

Historic Weather in Vaduz — Graph

°F

Vaduz temperature yesterday

Maximum temperature yesterday: 53 °F (at 3:00 PM)
Minimum temperature yesterday: 36 °F (at 4:00 AM)
Average temperature yesterday: 44 °F

Past Weeks' High & Low Weather Summary

 TemperatureHumidityPressure
High78 °F (Oct 12, 3:00 PM)98% (Oct 24, 1:00 AM)30.34 "Hg (Oct 24, 1:00 AM)
Low36 °F (Oct 24, 4:00 AM)28% (Oct 12, 3:00 PM)29.73 "Hg (Oct 21, 8:00 PM)
Average57 °F74%30.03 "Hg
* Reported Oct 10 11:00 AM — Oct 25 11:00 AM, Vaduz, Weather by CustomWeather, © 2014

Note: Actual official high and low records may vary slightly from our data, if they occured in-between our weather recording intervals... More about our weather records

Advertising

Vaduz weather history for previous 24 hours

 ConditionsComfort  
Time TempWeatherWind HumidityBarometerVisibility
11:00 AM
Oct 25
48 °FOvercast.5 mph65%30.20 "Hg9 mi
10:00 AM47 °FCool.3 mph70%30.20 "HgN/A
9:00 AM46 °FCool.5 mph71%30.19 "HgN/A
8:00 AM47 °FOvercast.3 mph67%30.17 "Hg9 mi
7:00 AM47 °FCool.6 mph63%30.15 "HgN/A
6:00 AM46 °FCool.5 mph65%30.15 "HgN/A
5:00 AM46 °FFog.7 mph65%30.15 "Hg6 mi
4:00 AM47 °FCool.6 mph65%30.15 "HgN/A
3:00 AM46 °FCool.7 mph68%30.16 "HgN/A
2:00 AM46 °FFog.6 mph70%30.18 "Hg6 mi
1:00 AM45 °FCool.7 mph73%30.18 "HgN/A
12:00 AM45 °FCool.6 mph74%30.18 "HgN/A
11:00 PM
Oct 24
46 °FFog.6 mph73%30.19 "Hg6 mi
10:00 PM47 °FCool.6 mph72%30.17 "HgN/A
9:00 PM47 °FCool.6 mph74%30.17 "HgN/A
8:00 PM46 °FFog.6 mph75%30.17 "Hg7 mi
7:00 PM44 °FQuite cool.1 mph86%30.17 "HgN/A
6:00 PM46 °FCool.1 mph81%30.16 "HgN/A
5:00 PM51 °FPassing clouds.5 mph63%30.15 "Hg9 mi
4:00 PM53 °FCool.5 mph58%30.14 "HgN/A
3:00 PM53 °FCool.5 mph59%30.15 "HgN/A
2:00 PM51 °FPassing clouds.1 mph57%30.16 "Hg12 mi
1:00 PM49 °FCool.3 mph59%30.19 "HgN/A
12:00 PM47 °FCool.5 mph61%30.22 "HgN/A
Weather by CustomWeather, © 2014

See weather overviewHow to use our weather pages